contact:dominique.lefevre@mio.osupytheas.fr, maurice.libes@osupytheas.fr, didier.mallarino@osupytheas.fr
Project:EMSO http://www.emso-fr.org/EMSO-France
Depth: 2436.0 m
Title:EMSO Ligure Ouest : Data MII capteur AQUADOPP
Date,Latitude,Longitude,X_East,Y_North,Z_Up,Amplitude_X,Amplitude_Y,Amplitude_Z,Batterie,SoundSpeed,Heading,Pitch,Roll,Pressure,TIS,Speed,Direction
, degrees North, degrees East, m.s-1, m.s-1,m.s-1, 1, 1, 1, Volt, m.s-1, degree, degree, degree, dbar, degree_C, m.s-1, degree
2021-05-27T00:04:03,42.805,6.029,0.036,-0.033,0.004,105.0,103.0,103.0,13.4,1505.2,324.9,-0.8,1.8,2470.41,13.28,0.048,132.5
2021-05-27T00:07:03,42.805,6.029,-0.013,-0.008,0.007,104.0,104.0,103.0,13.3,1505.2,329.3,-0.8,1.8,2470.372,13.28,0.015,238.4
2021-05-27T00:10:03,42.805,6.029,0.003,-0.036,-0.014,106.0,104.0,104.0,13.4,1505.2,326.3,-0.7,1.8,2470.428,13.28,0.036,175.2
2021-05-27T00:13:03,42.805,6.029,0.0,-0.023,0.011,105.0,103.0,103.0,13.4,1505.2,327.8,-0.8,1.8,2470.366,13.28,0.023,180.0
2021-05-27T00:16:03,42.805,6.029,0.008,-0.03,0.012,105.0,106.0,103.0,13.4,1505.2,325.0,-0.8,1.8,2470.44,13.28,0.031,165.1
2021-05-27T00:19:03,42.805,6.029,0.029,-0.033,-0.021,105.0,103.0,104.0,13.4,1505.2,327.9,-0.7,1.8,2470.382,13.28,0.043,138.7
2021-05-27T00:22:03,42.805,6.029,0.007,-0.049,-0.009,105.0,102.0,104.0,13.3,1505.2,326.5,-0.8,1.8,2470.339,13.28,0.049,171.9
2021-05-27T00:25:03,42.805,6.029,0.013,-0.04,-0.012,106.0,104.0,102.0,13.4,1505.2,324.8,-0.8,1.8,2470.372,13.28,0.042,162.0
2021-05-27T00:28:03,42.805,6.029,0.009,-0.032,0.02,105.0,103.0,103.0,13.4,1505.2,328.8,-0.7,1.8,2470.358,13.28,0.033,164.3
2021-05-27T00:31:03,42.805,6.029,0.014,-0.034,0.009,104.0,104.0,102.0,13.4,1505.2,327.1,-0.7,1.8,2470.371,13.28,0.036,157.6
2021-05-27T00:34:03,42.805,6.029,0.011,-0.047,-0.001,105.0,103.0,102.0,13.4,1505.2,330.2,-0.7,1.8,2470.4,13.28,0.048,166.8
2021-05-27T00:37:03,42.805,6.029,-0.004,-0.034,-0.022,104.0,104.0,103.0,13.4,1505.2,325.7,-0.8,1.8,2470.342,13.28,0.034,186.7
2021-05-27T00:40:03,42.805,6.029,0.004,-0.03,-0.01,104.0,105.0,103.0,13.4,1505.2,328.3,-0.7,1.8,2470.356,13.28,0.03,172.4
2021-05-27T00:43:03,42.805,6.029,-0.016,-0.017,-0.035,103.0,105.0,102.0,13.4,1505.2,325.1,-0.8,1.8,2470.393,13.28,0.023,223.3
2021-05-27T00:46:03,42.805,6.029,-0.012,-0.027,-0.011,105.0,104.0,102.0,13.4,1505.2,325.7,-0.7,1.8,2470.358,13.28,0.029,204.0
2021-05-27T00:49:03,42.805,6.029,0.017,-0.051,-0.003,104.0,104.0,103.0,13.3,1505.2,329.9,-0.8,1.8,2470.365,13.28,0.053,161.6
2021-05-27T00:52:03,42.805,6.029,0.005,-0.05,0.018,104.0,104.0,102.0,13.4,1505.2,329.6,-0.8,1.8,2470.337,13.28,0.05,174.3
2021-05-27T00:55:03,42.805,6.029,0.011,-0.038,-0.02,105.0,105.0,103.0,13.4,1505.2,329.8,-0.7,1.8,2470.341,13.28,0.039,163.9
2021-05-27T00:58:03,42.805,6.029,0.004,-0.025,-0.016,104.0,104.0,103.0,13.3,1505.2,328.9,-0.7,1.8,2470.349,13.28,0.025,170.9
2021-05-27T01:04:03,42.805,6.029,0.008,-0.036,-0.039,104.0,104.0,103.0,13.3,1505.2,328.8,-0.7,1.8,2470.337,13.28,0.036,167.5
2021-05-27T01:07:03,42.805,6.029,0.011,-0.048,-0.008,105.0,104.0,102.0,13.4,1505.2,328.0,-0.8,1.8,2470.367,13.28,0.049,167.1
2021-05-27T01:10:03,42.805,6.029,0.017,-0.031,0.0,107.0,104.0,103.0,13.4,1505.2,325.4,-0.8,1.8,2470.334,13.28,0.035,151.3
2021-05-27T01:13:03,42.805,6.029,0.028,-0.037,0.024,105.0,105.0,102.0,13.4,1505.2,326.1,-0.8,1.9,2470.333,13.28,0.046,142.9
2021-05-27T01:16:03,42.805,6.029,0.016,-0.032,0.006,105.0,106.0,102.0,13.3,1505.2,326.8,-0.7,1.8,2470.392,13.28,0.035,153.4
2021-05-27T01:19:03,42.805,6.029,0.022,-0.033,-0.016,106.0,105.0,103.0,13.4,1505.2,327.7,-0.7,1.8,2470.291,13.28,0.039,146.3
2021-05-27T01:22:03,42.805,6.029,0.022,-0.049,-0.018,104.0,105.0,103.0,13.4,1505.2,329.5,-0.8,1.9,2470.284,13.28,0.053,155.8
2021-05-27T01:25:03,42.805,6.029,0.017,-0.04,-0.009,104.0,105.0,103.0,13.4,1505.2,327.9,-0.8,1.8,2470.324,13.28,0.043,157.0
2021-05-27T01:28:03,42.805,6.029,0.015,-0.046,-0.016,106.0,104.0,102.0,13.4,1505.2,328.0,-0.7,1.9,2470.328,13.28,0.048,161.9
2021-05-27T01:31:03,42.805,6.029,0.023,-0.036,-0.034,105.0,103.0,103.0,13.4,1505.2,327.8,-0.8,1.9,2470.316,13.28,0.042,147.4
2021-05-27T01:34:03,42.805,6.029,0.024,-0.052,-0.002,104.0,104.0,104.0,13.4,1505.2,329.6,-0.7,1.9,2470.268,13.28,0.057,155.2
2021-05-27T01:37:03,42.805,6.029,0.011,-0.029,-0.006,104.0,104.0,103.0,13.4,1505.2,329.7,-0.8,1.8,2470.336,13.28,0.031,159.2
2021-05-27T01:40:03,42.805,6.029,0.012,-0.05,-0.035,106.0,105.0,103.0,13.4,1505.2,328.3,-0.7,1.8,2470.294,13.28,0.051,166.5
2021-05-27T01:43:03,42.805,6.029,0.021,-0.046,-0.005,103.0,105.0,103.0,13.4,1505.2,327.0,-0.8,1.8,2470.288,13.28,0.05,155.5
2021-05-27T01:46:03,42.805,6.029,-0.004,-0.056,-0.035,106.0,103.0,103.0,13.3,1505.2,327.0,-0.7,1.8,2470.224,13.28,0.056,184.1
2021-05-27T01:49:03,42.805,6.029,0.03,-0.042,-0.032,105.0,106.0,102.0,13.4,1505.2,325.1,-0.7,1.8,2470.277,13.28,0.051,144.5
2021-05-27T01:52:03,42.805,6.029,0.021,-0.047,-0.009,106.0,103.0,102.0,13.4,1505.2,325.6,-0.7,1.8,2470.27,13.28,0.051,155.9
2021-05-27T01:55:03,42.805,6.029,0.006,-0.038,-0.018,105.0,105.0,102.0,13.4,1505.2,328.6,-0.7,1.8,2470.297,13.28,0.038,171.0
2021-05-27T01:58:03,42.805,6.029,0.001,-0.064,-0.03,107.0,104.0,103.0,13.3,1505.2,327.8,-0.8,1.8,2470.278,13.28,0.064,179.1
2021-05-27T02:04:03,42.805,6.029,-0.009,-0.044,-0.029,106.0,105.0,104.0,13.4,1505.2,329.9,-0.7,1.8,2470.256,13.28,0.044,191.6
2021-05-27T02:07:03,42.805,6.029,0.005,-0.039,-0.001,106.0,105.0,103.0,13.3,1505.2,324.5,-0.7,1.8,2470.308,13.28,0.039,172.7
2021-05-27T02:10:03,42.805,6.029,0.008,-0.055,-0.017,105.0,104.0,104.0,13.4,1505.2,327.8,-0.8,1.8,2470.274,13.28,0.055,171.7
2021-05-27T02:13:03,42.805,6.029,-0.009,-0.051,-0.023,106.0,105.0,102.0,13.4,1505.2,329.4,-0.8,1.8,2470.254,13.28,0.051,190.0
2021-05-27T02:16:03,42.805,6.029,0.012,-0.059,-0.037,106.0,105.0,104.0,13.4,1505.2,328.9,-0.7,1.8,2470.256,13.28,0.06,168.5
2021-05-27T02:19:03,42.805,6.029,-0.016,-0.029,-0.031,105.0,105.0,104.0,13.4,1505.2,328.9,-0.8,1.8,2470.293,13.28,0.033,208.9
2021-05-27T02:22:03,42.805,6.029,-0.002,-0.043,-0.029,105.0,105.0,104.0,13.3,1505.2,327.4,-0.8,1.8,2470.303,13.28,0.043,182.7
2021-05-27T02:25:03,42.805,6.029,0.007,-0.036,-0.001,105.0,106.0,103.0,13.3,1505.2,329.2,-0.8,1.8,2470.261,13.28,0.036,169.0
2021-05-27T02:28:03,42.805,6.029,0.004,-0.064,-0.025,106.0,104.0,102.0,13.4,1505.2,327.2,-0.8,1.9,2470.219,13.28,0.064,176.4
2021-05-27T02:31:03,42.805,6.029,0.001,-0.045,-0.023,107.0,105.0,103.0,13.4,1505.2,325.4,-0.7,1.8,2470.304,13.28,0.045,178.7
2021-05-27T02:34:03,42.805,6.029,0.004,-0.062,-0.019,104.0,106.0,104.0,13.3,1505.2,329.1,-0.7,1.8,2470.272,13.28,0.062,176.3
2021-05-27T02:37:03,42.805,6.029,0.024,-0.027,-0.022,105.0,105.0,102.0,13.3,1505.2,327.3,-0.8,1.8,2470.281,13.28,0.036,138.4
2021-05-27T02:40:03,42.805,6.029,-0.001,-0.041,-0.029,105.0,105.0,103.0,13.4,1505.2,325.4,-0.7,1.8,2470.238,13.28,0.041,181.4
2021-05-27T02:43:03,42.805,6.029,0.005,-0.036,-0.047,105.0,103.0,104.0,13.4,1505.2,326.1,-0.7,1.8,2470.229,13.28,0.036,172.1
2021-05-27T02:46:03,42.805,6.029,0.008,-0.042,-0.009,106.0,105.0,102.0,13.4,1505.2,329.1,-0.7,1.8,2470.23,13.28,0.042,169.2
2021-05-27T02:49:03,42.805,6.029,-0.007,-0.05,-0.039,106.0,105.0,104.0,13.3,1505.2,328.0,-0.8,1.9,2470.252,13.28,0.05,188.0
2021-05-27T02:52:03,42.805,6.029,-0.014,-0.049,-0.033,105.0,105.0,104.0,13.3,1505.2,329.5,-0.8,1.8,2470.262,13.28,0.05,195.9
2021-05-27T02:55:03,42.805,6.029,-0.024,-0.048,0.006,105.0,105.0,104.0,13.4,1505.2,325.5,-0.7,1.8,2470.241,13.28,0.053,206.6
2021-05-27T02:58:03,42.805,6.029,0.023,-0.031,0.0,106.0,104.0,104.0,13.3,1505.2,328.2,-0.8,1.8,2470.21,13.28,0.038,143.4
2021-05-27T03:04:03,42.805,6.029,-0.004,-0.029,-0.002,105.0,105.0,103.0,13.3,1505.2,327.3,-0.8,1.8,2470.228,13.28,0.029,187.8
2021-05-27T03:07:03,42.805,6.029,0.011,-0.047,0.009,105.0,105.0,103.0,13.4,1505.2,327.6,-0.8,1.9,2470.28,13.28,0.048,166.8
2021-05-27T03:10:03,42.805,6.029,0.004,-0.044,-0.025,105.0,105.0,104.0,13.4,1505.2,329.8,-0.8,1.8,2470.27,13.28,0.044,174.8
2021-05-27T03:13:03,42.805,6.029,0.001,-0.041,-0.003,105.0,104.0,104.0,13.4,1505.2,328.1,-0.8,1.8,2470.238,13.28,0.041,178.6
2021-05-27T03:16:03,42.805,6.029,-0.011,-0.034,-0.018,106.0,105.0,104.0,13.3,1505.2,329.8,-0.7,1.8,2470.329,13.28,0.035,197.9
2021-05-27T03:19:03,42.805,6.029,-0.002,-0.036,0.023,106.0,106.0,103.0,13.4,1505.2,324.8,-0.7,1.8,2470.27,13.28,0.036,183.2
2021-05-27T03:22:03,42.805,6.029,-0.009,-0.053,-0.02,105.0,106.0,102.0,13.3,1505.2,328.2,-0.7,1.8,2470.295,13.28,0.053,189.6
2021-05-27T03:25:03,42.805,6.029,0.011,-0.034,-0.015,105.0,104.0,103.0,13.4,1505.2,328.3,-0.7,1.8,2470.319,13.28,0.035,162.1
2021-05-27T03:28:03,42.805,6.029,0.004,-0.027,-0.001,106.0,105.0,103.0,13.4,1505.2,326.3,-0.7,1.8,2470.278,13.28,0.027,171.6
2021-05-27T03:31:03,42.805,6.029,-0.015,-0.043,-0.003,106.0,105.0,103.0,13.4,1505.2,326.1,-0.8,1.8,2470.321,13.28,0.045,199.2
2021-05-27T03:34:03,42.805,6.029,-0.031,-0.029,0.005,106.0,105.0,103.0,13.4,1505.2,326.3,-0.8,1.8,2470.312,13.28,0.042,226.9
2021-05-27T03:37:03,42.805,6.029,-0.002,-0.044,-0.016,105.0,105.0,103.0,13.3,1505.2,324.6,-0.7,1.8,2470.305,13.28,0.044,182.6
2021-05-27T03:40:03,42.805,6.029,-0.005,-0.059,-0.025,106.0,106.0,103.0,13.4,1505.2,327.8,-0.7,1.8,2470.273,13.28,0.059,184.8
2021-05-27T03:43:03,42.805,6.029,-0.016,-0.031,0.001,105.0,104.0,103.0,13.4,1505.2,328.4,-0.7,1.8,2470.287,13.28,0.034,207.3
2021-05-27T03:46:03,42.805,6.029,-0.002,-0.019,-0.021,106.0,105.0,104.0,13.3,1505.2,329.2,-0.7,1.9,2470.282,13.28,0.019,186.0
2021-05-27T03:49:03,42.805,6.029,0.025,-0.033,0.009,106.0,106.0,103.0,13.4,1505.2,325.0,-0.7,1.8,2470.304,13.28,0.041,142.8
2021-05-27T03:52:03,42.805,6.029,-0.005,-0.02,-0.045,107.0,105.0,103.0,13.4,1505.2,329.5,-0.8,1.8,2470.318,13.28,0.02,194.0
2021-05-27T03:55:03,42.805,6.029,0.004,-0.046,-0.035,106.0,105.0,103.0,13.4,1505.2,326.7,-0.7,1.8,2470.302,13.28,0.046,175.0
2021-05-27T03:58:03,42.805,6.029,0.003,-0.045,-0.017,105.0,104.0,103.0,13.4,1505.2,328.4,-0.8,1.8,2470.323,13.28,0.045,176.2
2021-05-27T04:04:03,42.805,6.029,-0.003,-0.049,0.005,105.0,105.0,103.0,13.4,1505.2,325.8,-0.8,1.8,2470.35,13.28,0.049,183.5
2021-05-27T04:07:03,42.805,6.029,0.015,-0.026,-0.007,106.0,104.0,102.0,13.4,1505.2,324.7,-0.8,1.8,2470.351,13.28,0.03,150.0
2021-05-27T04:10:03,42.805,6.029,-0.01,-0.037,-0.013,104.0,105.0,103.0,13.3,1505.2,325.8,-0.8,1.8,2470.367,13.28,0.038,195.1
2021-05-27T04:13:03,42.805,6.029,-0.007,-0.03,-0.01,106.0,104.0,103.0,13.4,1505.2,329.1,-0.7,1.9,2470.34,13.28,0.03,193.1
2021-05-27T04:16:03,42.805,6.029,0.007,-0.021,-0.023,106.0,104.0,104.0,13.4,1505.2,327.8,-0.7,1.8,2470.349,13.28,0.022,161.6
2021-05-27T04:19:03,42.805,6.029,0.009,-0.05,-0.012,105.0,105.0,102.0,13.4,1505.2,327.4,-0.8,1.8,2470.341,13.28,0.05,169.8
2021-05-27T04:22:03,42.805,6.029,0.007,-0.063,-0.007,105.0,105.0,102.0,13.3,1505.2,328.2,-0.7,1.8,2470.355,13.28,0.063,173.7
2021-05-27T04:25:03,42.805,6.029,-0.003,-0.047,-0.038,106.0,105.0,104.0,13.4,1505.2,328.4,-0.8,1.8,2470.343,13.28,0.047,183.6
2021-05-27T04:28:03,42.805,6.029,0.018,-0.043,-0.021,104.0,104.0,102.0,13.4,1505.2,325.5,-0.8,1.8,2470.346,13.28,0.046,157.3
2021-05-27T04:31:03,42.805,6.029,-0.022,-0.038,-0.035,105.0,103.0,103.0,13.4,1505.2,329.2,-0.7,1.8,2470.348,13.28,0.043,210.1
2021-05-27T04:34:03,42.805,6.029,0.018,-0.03,0.02,105.0,103.0,104.0,13.4,1505.2,328.6,-0.7,1.9,2470.327,13.28,0.034,149.0
2021-05-27T04:37:03,42.805,6.029,-0.02,-0.042,-0.012,105.0,104.0,103.0,13.4,1505.2,328.1,-0.7,1.8,2470.343,13.28,0.046,205.5
2021-05-27T04:40:03,42.805,6.029,0.0,-0.036,-0.01,105.0,105.0,103.0,13.4,1505.2,324.8,-0.7,1.9,2470.346,13.28,0.036,180.0
2021-05-27T04:43:03,42.805,6.029,0.004,-0.049,0.001,105.0,104.0,103.0,13.4,1505.2,328.1,-0.8,1.8,2470.345,13.28,0.049,175.3
2021-05-27T04:46:03,42.805,6.029,0.007,-0.035,0.0,105.0,103.0,103.0,13.3,1505.2,325.5,-0.8,1.8,2470.341,13.28,0.035,168.7
2021-05-27T04:49:03,42.805,6.029,0.011,-0.049,-0.013,105.0,105.0,103.0,13.4,1505.2,328.0,-0.7,1.8,2470.356,13.28,0.05,167.3
2021-05-27T04:52:03,42.805,6.029,0.004,-0.05,-0.043,105.0,105.0,103.0,13.4,1505.2,324.8,-0.8,1.8,2470.341,13.28,0.05,175.4
2021-05-27T04:55:03,42.805,6.029,0.018,-0.027,-0.016,106.0,106.0,103.0,13.3,1505.2,329.1,-0.8,1.8,2470.399,13.28,0.032,146.3
2021-05-27T04:58:03,42.805,6.029,-0.002,-0.048,0.006,105.0,105.0,103.0,13.4,1505.2,327.7,-0.8,1.9,2470.384,13.28,0.048,182.4
2021-05-27T05:04:03,42.805,6.029,0.0,-0.048,-0.003,105.0,104.0,104.0,13.4,1505.2,326.7,-0.7,1.8,2470.412,13.28,0.048,180.0
2021-05-27T05:07:03,42.805,6.029,-0.014,-0.039,0.002,106.0,105.0,103.0,13.4,1505.2,324.6,-0.8,1.8,2470.403,13.28,0.041,199.7
2021-05-27T05:10:03,42.805,6.029,0.019,-0.041,0.01,105.0,105.0,103.0,13.3,1505.2,325.6,-0.8,1.8,2470.429,13.28,0.045,155.1
2021-05-27T05:13:03,42.805,6.029,0.022,-0.042,-0.006,105.0,104.0,103.0,13.4,1505.2,328.0,-0.8,1.8,2470.383,13.28,0.047,152.4
2021-05-27T05:16:03,42.805,6.029,0.0,-0.033,-0.004,104.0,104.0,104.0,13.4,1505.2,326.0,-0.8,1.8,2470.417,13.28,0.033,180.0
2021-05-27T05:19:03,42.805,6.029,0.0,-0.049,-0.005,105.0,104.0,102.0,13.4,1505.2,325.9,-0.8,1.8,2470.414,13.28,0.049,180.0
2021-05-27T05:22:03,42.805,6.029,-0.009,-0.025,-0.002,104.0,105.0,103.0,13.4,1505.2,327.7,-0.7,1.8,2470.405,13.28,0.026,199.8
2021-05-27T05:25:03,42.805,6.029,0.016,-0.037,-0.015,106.0,106.0,103.0,13.3,1505.2,327.1,-0.8,1.8,2470.412,13.28,0.04,156.6
2021-05-27T05:28:03,42.805,6.029,-0.019,-0.033,-0.004,105.0,105.0,103.0,13.3,1505.2,327.6,-0.8,1.8,2470.42,13.28,0.038,209.9
2021-05-27T05:31:03,42.805,6.029,-0.009,-0.04,-0.031,106.0,105.0,102.0,13.3,1505.2,326.4,-0.7,1.8,2470.418,13.28,0.041,192.7
2021-05-27T05:34:03,42.805,6.029,0.001,-0.04,-0.012,105.0,105.0,102.0,13.4,1505.2,324.7,-0.8,1.8,2470.42,13.28,0.04,178.6
2021-05-27T05:37:03,42.805,6.029,-0.002,-0.044,0.0,106.0,105.0,103.0,13.4,1505.2,326.5,-0.8,1.8,2470.391,13.28,0.044,182.6
2021-05-27T05:40:03,42.805,6.029,0.005,-0.022,-0.047,105.0,104.0,104.0,13.4,1505.2,326.0,-0.8,1.8,2470.45,13.28,0.022,167.2
2021-05-27T05:43:03,42.805,6.029,0.003,-0.037,-0.006,104.0,104.0,102.0,13.3,1505.2,328.1,-0.8,1.8,2470.411,13.28,0.037,175.4
2021-05-27T05:46:03,42.805,6.029,0.003,-0.035,0.0,104.0,105.0,102.0,13.3,1505.2,327.7,-0.7,1.8,2470.401,13.28,0.035,175.1
2021-05-27T05:49:03,42.805,6.029,0.001,-0.036,-0.043,106.0,104.0,103.0,13.4,1505.2,325.6,-0.8,1.8,2470.372,13.28,0.036,178.4
2021-05-27T05:52:03,42.805,6.029,-0.005,-0.047,-0.029,104.0,103.0,103.0,13.4,1505.2,323.9,-0.8,1.8,2470.392,13.28,0.047,186.1
2021-05-27T05:55:03,42.805,6.029,-0.002,-0.046,-0.021,104.0,104.0,103.0,13.3,1505.2,329.3,-0.8,1.8,2470.433,13.28,0.046,182.5
2021-05-27T05:58:03,42.805,6.029,0.017,-0.055,-0.006,105.0,105.0,103.0,13.3,1505.2,326.2,-0.7,1.8,2470.421,13.28,0.057,162.8
2021-05-27T06:04:03,42.805,6.029,0.004,-0.061,-0.033,106.0,105.0,103.0,13.4,1505.2,326.3,-0.8,1.8,2470.42,13.28,0.061,176.3
2021-05-27T06:07:03,42.805,6.029,0.005,-0.043,-0.025,105.0,105.0,103.0,13.4,1505.2,326.0,-0.7,1.8,2470.445,13.28,0.043,173.4
2021-05-27T06:10:03,42.805,6.029,0.009,-0.025,-0.011,106.0,104.0,102.0,13.4,1505.2,327.1,-0.8,1.8,2470.424,13.28,0.026,160.2
2021-05-27T06:13:03,42.805,6.029,0.01,-0.05,-0.002,104.0,105.0,102.0,13.4,1505.2,327.5,-0.7,1.8,2470.433,13.28,0.05,168.7
2021-05-27T06:16:03,42.805,6.029,0.02,-0.042,0.005,106.0,105.0,101.0,13.4,1505.2,325.6,-0.8,1.8,2470.442,13.28,0.046,154.5
2021-05-27T06:19:03,42.805,6.029,0.004,-0.032,0.009,105.0,105.0,104.0,13.4,1505.2,328.7,-0.7,1.8,2470.453,13.28,0.032,172.9
2021-05-27T06:22:03,42.805,6.029,-0.001,-0.057,0.009,105.0,104.0,104.0,13.4,1505.2,326.5,-0.7,1.9,2470.421,13.28,0.057,181.0
2021-05-27T06:25:03,42.805,6.029,0.024,-0.059,-0.003,106.0,105.0,103.0,13.3,1505.2,324.8,-0.7,1.8,2470.422,13.28,0.063,157.9
2021-05-27T06:28:03,42.805,6.029,0.009,-0.048,-0.015,106.0,105.0,103.0,13.3,1505.2,325.1,-0.8,1.8,2470.438,13.28,0.048,169.4
2021-05-27T06:31:03,42.805,6.029,0.004,-0.035,0.01,105.0,105.0,103.0,13.3,1505.2,328.3,-0.8,1.8,2470.447,13.28,0.035,173.5
2021-05-27T06:34:03,42.805,6.029,-0.001,-0.051,0.009,104.0,106.0,103.0,13.4,1505.2,325.0,-0.7,1.8,2470.44,13.28,0.051,181.1
2021-05-27T06:37:03,42.805,6.029,0.007,-0.038,0.009,105.0,105.0,104.0,13.3,1505.2,326.2,-0.8,1.8,2470.448,13.28,0.038,169.6
2021-05-27T06:40:03,42.805,6.029,-0.008,-0.032,-0.013,104.0,106.0,103.0,13.3,1505.2,329.0,-0.8,1.8,2470.452,13.28,0.032,194.0
2021-05-27T06:43:03,42.805,6.029,0.004,-0.053,0.02,105.0,104.0,103.0,13.3,1505.2,329.2,-0.7,1.8,2470.439,13.28,0.053,175.7
2021-05-27T06:46:03,42.805,6.029,-0.001,-0.024,-0.009,106.0,105.0,103.0,13.4,1505.2,327.6,-0.7,1.9,2470.428,13.28,0.024,182.4
2021-05-27T06:49:03,42.805,6.029,0.015,-0.016,-0.012,107.0,104.0,103.0,13.3,1505.2,325.0,-0.8,1.8,2470.435,13.28,0.021,136.9
2021-05-27T06:52:03,42.805,6.029,0.009,-0.039,-0.003,106.0,105.0,103.0,13.3,1505.2,326.1,-0.8,1.8,2470.468,13.28,0.04,167.0
2021-05-27T06:55:03,42.805,6.029,0.0,-0.043,-0.017,105.0,104.0,104.0,13.4,1505.2,324.2,-0.8,1.9,2470.463,13.28,0.043,180.0
2021-05-27T06:58:03,42.805,6.029,0.003,-0.034,-0.015,106.0,105.0,104.0,13.4,1505.2,326.0,-0.7,1.9,2470.442,13.28,0.034,175.0
2021-05-27T07:04:03,42.805,6.029,0.0,-0.034,-0.021,105.0,105.0,104.0,13.4,1505.2,328.4,-0.7,1.8,2470.444,13.28,0.034,180.0
2021-05-27T07:07:03,42.805,6.029,0.001,-0.036,-0.003,106.0,105.0,103.0,13.4,1505.2,328.4,-0.8,1.8,2470.447,13.28,0.036,178.4
2021-05-27T07:10:03,42.805,6.029,-0.006,-0.028,-0.014,106.0,104.0,103.0,13.3,1505.2,327.1,-0.8,1.8,2470.469,13.28,0.028,192.1
2021-05-27T07:13:03,42.805,6.029,-0.004,-0.057,-0.018,104.0,105.0,104.0,13.4,1505.2,329.1,-0.8,1.8,2470.491,13.28,0.057,184.0
2021-05-27T07:16:03,42.805,6.029,0.014,-0.042,0.003,106.0,105.0,104.0,13.4,1505.2,325.5,-0.7,1.8,2470.465,13.28,0.044,161.6
2021-05-27T07:19:03,42.805,6.029,-0.001,-0.06,-0.01,105.0,105.0,103.0,13.4,1505.2,326.9,-0.8,1.9,2470.477,13.28,0.06,181.0
2021-05-27T07:22:03,42.805,6.029,-0.002,-0.04,0.001,105.0,107.0,103.0,13.4,1505.2,326.5,-0.8,1.9,2470.445,13.28,0.04,182.9
2021-05-27T07:25:03,42.805,6.029,0.007,-0.039,0.007,106.0,105.0,102.0,13.3,1505.2,325.8,-0.7,1.8,2470.435,13.28,0.039,169.8
2021-05-27T07:28:03,42.805,6.029,0.001,-0.019,-0.03,105.0,107.0,103.0,13.4,1505.2,325.6,-0.8,1.8,2470.459,13.28,0.019,177.0
2021-05-27T07:31:03,42.805,6.029,-0.016,-0.038,-0.035,106.0,105.0,103.0,13.3,1505.2,329.5,-0.7,1.8,2470.449,13.28,0.041,202.8
2021-05-27T07:34:03,42.805,6.029,0.013,-0.037,-0.005,106.0,104.0,103.0,13.4,1505.2,328.3,-0.8,1.8,2470.474,13.28,0.039,160.6
2021-05-27T07:37:03,42.805,6.029,0.0,-0.038,0.001,106.0,106.0,103.0,13.4,1505.2,327.5,-0.8,1.8,2470.441,13.28,0.038,180.0
2021-05-27T07:40:03,42.805,6.029,0.003,-0.043,-0.009,106.0,105.0,103.0,13.3,1505.2,324.6,-0.7,1.8,2470.452,13.28,0.043,176.0
2021-05-27T07:43:03,42.805,6.029,0.017,-0.054,-0.017,107.0,106.0,103.0,13.4,1505.2,326.6,-0.7,1.8,2470.465,13.28,0.056,162.5
2021-05-27T07:46:03,42.805,6.029,0.014,-0.043,-0.029,106.0,106.0,103.0,13.4,1505.2,327.2,-0.7,1.9,2470.477,13.28,0.045,162.0
2021-05-27T07:49:03,42.805,6.029,0.018,-0.054,0.005,106.0,104.0,103.0,13.3,1505.2,326.0,-0.7,1.8,2470.461,13.28,0.056,161.6
2021-05-27T07:52:03,42.805,6.029,0.01,-0.045,0.005,107.0,104.0,103.0,13.4,1505.2,324.9,-0.8,1.8,2470.417,13.28,0.046,167.5
2021-05-27T07:55:03,42.805,6.029,-0.004,-0.058,-0.041,105.0,105.0,104.0,13.3,1505.2,325.7,-0.8,1.9,2470.432,13.28,0.058,183.9
2021-05-27T07:58:03,42.805,6.029,0.004,-0.039,-0.001,105.0,105.0,103.0,13.4,1505.2,325.1,-0.7,1.8,2470.474,13.28,0.039,174.1
2021-05-27T08:04:03,42.805,6.029,0.02,-0.04,-0.004,106.0,106.0,103.0,13.3,1505.2,325.7,-0.8,1.8,2470.482,13.28,0.044,153.4
2021-05-27T08:07:03,42.805,6.029,-0.004,-0.055,-0.005,106.0,104.0,104.0,13.3,1505.2,326.7,-0.8,1.8,2470.444,13.28,0.055,184.2
2021-05-27T08:10:03,42.805,6.029,-0.001,-0.061,-0.037,107.0,106.0,103.0,13.4,1505.2,327.4,-0.8,1.9,2470.462,13.28,0.061,180.9
2021-05-27T08:13:03,42.805,6.029,0.009,-0.032,-0.015,106.0,105.0,103.0,13.4,1505.2,328.3,-0.7,1.8,2470.454,13.28,0.033,164.3
2021-05-27T08:16:03,42.805,6.029,-0.007,-0.037,-0.028,107.0,105.0,104.0,13.3,1505.2,327.0,-0.8,1.8,2470.441,13.28,0.037,190.7
2021-05-27T08:19:03,42.805,6.029,0.004,-0.05,-0.009,107.0,106.0,103.0,13.3,1505.2,327.5,-0.8,1.8,2470.424,13.28,0.05,175.4
2021-05-27T08:22:03,42.805,6.029,0.003,-0.041,-0.018,105.0,106.0,104.0,13.4,1505.2,327.5,-0.8,1.8,2470.461,13.28,0.041,175.8
2021-05-27T08:25:03,42.805,6.029,0.0,-0.035,-0.047,106.0,105.0,104.0,13.4,1505.2,326.0,-0.8,1.8,2470.435,13.28,0.035,180.0
2021-05-27T08:28:03,42.805,6.029,0.016,-0.049,-0.039,105.0,107.0,103.0,13.4,1505.2,324.7,-0.8,1.8,2470.432,13.28,0.051,161.9
2021-05-27T08:31:03,42.805,6.029,0.001,-0.047,-0.017,106.0,105.0,104.0,13.4,1505.2,326.7,-0.7,1.8,2470.359,13.28,0.047,178.8
2021-05-27T08:34:03,42.805,6.029,0.0,-0.039,-0.008,106.0,106.0,104.0,13.4,1505.2,326.0,-0.8,1.8,2470.417,13.28,0.039,180.0
2021-05-27T08:37:03,42.805,6.029,0.014,-0.036,-0.039,105.0,104.0,104.0,13.4,1505.2,325.8,-0.8,1.8,2470.423,13.28,0.038,158.8
2021-05-27T08:40:03,42.805,6.029,0.002,-0.032,-0.022,108.0,104.0,104.0,13.4,1505.2,324.7,-0.8,1.8,2470.389,13.28,0.032,176.4
2021-05-27T08:43:03,42.805,6.029,0.002,-0.031,0.007,107.0,106.0,104.0,13.3,1505.2,328.1,-0.7,1.8,2470.406,13.28,0.031,176.3
2021-05-27T08:46:03,42.805,6.029,0.011,-0.044,-0.018,106.0,106.0,103.0,13.4,1505.2,328.7,-0.7,1.8,2470.388,13.28,0.045,166.0
2021-05-27T08:49:03,42.805,6.029,0.0,-0.028,-0.022,107.0,105.0,103.0,13.4,1505.2,329.6,-0.8,1.8,2470.409,13.28,0.028,180.0
2021-05-27T08:52:03,42.805,6.029,0.002,-0.028,-0.014,106.0,105.0,104.0,13.3,1505.2,325.1,-0.7,1.8,2470.382,13.28,0.028,175.9
2021-05-27T08:55:03,42.805,6.029,-0.003,-0.035,0.01,106.0,106.0,104.0,13.4,1505.2,328.5,-0.7,1.8,2470.377,13.28,0.035,184.9
2021-05-27T08:58:03,42.805,6.029,0.006,-0.027,-0.014,107.0,105.0,103.0,13.4,1505.2,327.7,-0.7,1.8,2470.384,13.28,0.027,167.5
2021-05-27T09:04:03,42.805,6.029,0.015,-0.043,-0.013,106.0,106.0,104.0,13.4,1505.2,328.5,-0.8,1.8,2470.398,13.28,0.045,160.8
2021-05-27T09:07:03,42.805,6.029,-0.01,-0.02,0.007,106.0,105.0,103.0,13.4,1505.2,324.8,-0.7,1.8,2470.39,13.28,0.022,206.6
2021-05-27T09:10:03,42.805,6.029,0.019,-0.053,0.006,106.0,105.0,104.0,13.4,1505.2,326.8,-0.7,1.9,2470.431,13.28,0.056,160.3
2021-05-27T09:13:03,42.805,6.029,0.011,-0.02,0.005,106.0,105.0,104.0,13.4,1505.2,324.7,-0.8,1.8,2470.399,13.28,0.022,151.2
2021-05-27T09:16:03,42.805,6.029,0.001,-0.032,0.007,105.0,105.0,104.0,13.4,1505.2,326.3,-0.8,1.8,2470.408,13.28,0.032,178.2
2021-05-27T09:19:03,42.805,6.029,0.009,-0.039,-0.001,105.0,106.0,103.0,13.3,1505.2,329.2,-0.8,1.9,2470.398,13.28,0.04,167.0
2021-05-27T09:22:03,42.805,6.029,0.013,-0.025,0.017,106.0,105.0,103.0,13.3,1505.2,327.4,-0.8,1.8,2470.361,13.28,0.028,152.5
2021-05-27T09:25:03,42.805,6.029,0.019,-0.048,-0.015,105.0,106.0,103.0,13.3,1505.2,326.8,-0.8,1.8,2470.409,13.28,0.051,158.4
2021-05-27T09:28:03,42.805,6.029,-0.012,-0.009,0.015,106.0,105.0,102.0,13.4,1505.2,324.2,-0.8,1.8,2470.384,13.28,0.015,233.1
2021-05-27T09:31:03,42.805,6.029,0.0,-0.035,0.004,106.0,105.0,103.0,13.3,1505.2,326.5,-0.7,1.8,2470.347,13.28,0.035,180.0
2021-05-27T09:34:03,42.805,6.029,0.003,-0.033,-0.012,106.0,106.0,103.0,13.4,1505.2,326.8,-0.8,1.8,2470.352,13.28,0.033,174.8
2021-05-27T09:37:03,42.805,6.029,0.005,-0.052,-0.022,107.0,106.0,103.0,13.4,1505.2,325.5,-0.7,1.8,2470.343,13.28,0.052,174.5
2021-05-27T09:40:03,42.805,6.029,-0.001,-0.029,-0.013,106.0,105.0,102.0,13.3,1505.2,325.4,-0.8,1.8,2470.372,13.28,0.029,182.0
2021-05-27T09:43:03,42.805,6.029,0.001,-0.046,-0.015,106.0,105.0,103.0,13.4,1505.2,325.6,-0.8,1.9,2470.355,13.28,0.046,178.8
2021-05-27T09:46:03,42.805,6.029,0.003,-0.033,-0.037,106.0,105.0,104.0,13.4,1505.2,326.5,-0.8,1.8,2470.391,13.28,0.033,174.8
2021-05-27T09:49:03,42.805,6.029,0.005,-0.026,-0.004,105.0,106.0,104.0,13.3,1505.2,324.8,-0.8,1.8,2470.361,13.28,0.026,169.1
2021-05-27T09:52:03,42.805,6.029,0.009,-0.043,-0.019,107.0,106.0,103.0,13.4,1505.2,326.3,-0.7,1.8,2470.402,13.28,0.043,168.2